Regional Weather Roundup
Issued by NWS

Home | Current Version | Previous Version | Text Only | Print | Product List | Glossary Off
Versions: 1 2 3 4 5 6 7 8 9 10 11 12 13 14 15 16 17 18 19 20 21 22 23 24 25 26 27 28 29 30 31 32 33 34 35 36 37 38 39 40 41 42 43 44 45 46 47 48 49 50

201
ASUS43 KMKX 051200
RWRWI

WISCONSIN REGIONAL WEATHER ROUNDUP
NATIONAL WEATHER SERVICE MILWAUKEE/SULLIVAN WI
700 AM CDT THU MAY 05 2016

NOTE: "FAIR" INDICATES FEW OR NO CLOUDS BELOW 12,000 FEET WITH NO
SIGNIFICANT WEATHER AND/OR OBSTRUCTIONS TO VISIBILITY.

WIZ001-002-006>008-014>016-023>028-051300-
NORTHWEST WISCONSIN

CITY           SKY/WX    TMP DP  RH WIND       PRES   REMARKS
SUPERIOR ARPT  CLOUDY    37  36  95 SW3       30.03F
ASHLAND        CLOUDY    33  32  96 S3        30.04R
6HR MIN TEMP:  28; 6HR MAX TEMP:  33;

HAYWARD        PTSUNNY   32  28  85 CALM      30.05R
6HR MIN TEMP:  28; 6HR MAX TEMP:  32;

SIREN          LGT RAIN  38  36  91 NW3       30.06R
CUMBERLAND     CLOUDY    37  32  81 CALM      30.05R
RICE LAKE      CLOUDY    36  32  85 CALM      30.06R
CHETEK         CLOUDY    34  32  92 CALM      30.05R
LADYSMITH      CLOUDY    32  30  91 CALM      30.06R
EAU CLAIRE     NOT AVBL
MENOMONIE      CLOUDY    36  32  85 CALM      30.05R
NEW RICHMOND   LGT RAIN  41  33  74 CALM      30.06R
OSCEOLA        CLOUDY    42  37  84 CALM      30.09R
$$

WIZ003>005-009-010-017-018-051300-
NORTH CENTRAL WISCONSIN

CITY           SKY/WX    TMP DP  RH WIND       PRES   REMARKS
MANITOWISH WTR SUNNY     29  29 100 CALM      30.01S
ARBOR VITAE    SUNNY     32  30  92 CALM      30.02R
WOODRUFF       SUNNY     32  30  92 CALM      30.02R
RHINELANDER    SUNNY     34  30  85 CALM      30.03R
6HR MIN TEMP:  25; 6HR MAX TEMP:  36;

EAGLE RIVER    SUNNY     26  26  99 CALM      30.02R
LAND O LAKES   SUNNY     28  27  98 CALM      30.02S
PHILLIPS       MOSUNNY   31  30  97 CALM      30.02R
TOMAHAWK       CLOUDY    30  29  96 W3        30.04R
MEDFORD        MOSUNNY   33  32  96 CALM      30.03R
MERRILL        MOSUNNY   31  29  94 CALM      30.04R
$$

WIZ029-030-035-036-043>047-051300-
CENTRAL WISCONSIN

CITY           SKY/WX    TMP DP  RH WIND       PRES   REMARKS
WAUSAU         MOSUNNY   40  32  73 N7        30.02R
6HR MIN TEMP:  35; 6HR MAX TEMP:  41;

MOSINEE        NOT AVBL
MARSHFIELD     MOSUNNY   39  33  79 NW3       30.03R
6HR MIN TEMP:  34; 6HR MAX TEMP:  43;

STEVENS POINT  SUNNY     33  30  91 N3        30.03R
WAUPACA        MOSUNNY   38  32  79 CALM      30.03R
WAUTOMA        NOT AVBL
WISC RAPIDS    SUNNY     39  32  76 N3        30.05R
6HR MIN TEMP:  31; 6HR MAX TEMP:  42;

CAMP DOUGLAS   NOT AVBL
$$

WIZ011>013-019>022-031-037>040-048>050-051300-
NORTHEAST WISCONSIN

CITY           SKY/WX    TMP DP  RH WIND       PRES   REMARKS
ANTIGO         SUNNY     33  31  95 CALM      30.02R
SHAWANO        SUNNY     38  32  79 CALM      30.03R
OCONTO         SUNNY     35  33  92 N5        30.02R WCI  31
STURGEON BAY   SUNNY     39  32  75 N12       30.03R WCI  32
6HR MIN TEMP:  37; 6HR MAX TEMP:  39;

GREEN BAY      SUNNY     39  33  79 N8        30.02R WCI  33
6HR MIN TEMP:  33; 6HR MAX TEMP:  39;

MANITOWOC      NOT AVBL
APPLETON       SUNNY     37  30  75 N9        30.00R WCI  31
CLINTONVILLE   SUNNY     37  32  81 N3        30.02R
OSHKOSH        SUNNY     39  32  76 N9        30.01R WCI  33
6HR MIN TEMP:  33; 6HR MAX TEMP:  40;

$$

WIZ032>034-041-042-053>061-051300-
SOUTHWEST WISCONSIN

CITY           SKY/WX    TMP DP  RH WIND       PRES   REMARKS
LA CROSSE      SUNNY     42  35  76 CALM      30.05R
6HR MIN TEMP:  36; 6HR MAX TEMP:  49;

SPARTA         SUNNY     31  29  92 CALM      30.06R
VIROQUA        SUNNY     38  32  79 N3        30.04R
BOSCOBEL       SUNNY     39  36  89 CALM      30.05R
6HR MIN TEMP:  33; 6HR MAX TEMP:  46;

PRAIRIE DU CHI SUNNY     37  32  82 CALM      30.05R HAZE
PLATTEVILLE    SUNNY     39  35  83 N5        30.01R
$$

WIZ056-057-062-063-064-067-068-051300-
SOUTH CENTRAL WISCONSIN

CITY           SKY/WX    TMP DP  RH WIND       PRES   REMARKS
REEDSBURG      SUNNY     37  32  84 N3        30.03R
BARABOO/DELLS  SUNNY     37  32  81 CALM      30.03R
LONE ROCK      NOT AVBL
MINERAL POINT  SUNNY     39  34  81 N3        30.01R
MADISON        MOSUNNY   38  32  79 N6        30.02R WCI  33
6HR MIN TEMP:  34; 6HR MAX TEMP:  42;

MIDDLETON      SUNNY     37  34  87 CALM      30.02R
WATERTOWN      SUNNY     36  35  96 NW8       30.00R WCI  30
MONROE         SUNNY     37  32  81 N10       30.00R WCI  30
JANESVILLE     SUNNY     39  36  87 N8        29.99R WCI  34
$$

WIZ051-052-058>065-066-070>072-051300-
SOUTHEAST WISCONSIN

CITY           SKY/WX    TMP DP  RH WIND       PRES   REMARKS
MILWAUKEE      PTSUNNY   42  33  70 N17G23    29.98R
6HR MIN TEMP:  40; 6HR MAX TEMP:  42;

WAUKESHA       PTSUNNY   37  32  81 NW6       29.99R WCI  33
MILWAUKEE/TIMM CLOUDY    41  30  65 N6        29.98R
RACINE         CLOUDY    42  33  70 N17       29.99R
6HR MIN TEMP:  40; 6HR MAX TEMP:  42;

BURLINGTON     MOSUNNY   36  32  85 N7        29.97R WCI  30
KENOSHA        SUNNY     40  33  76 N5        29.97R
6HR MIN TEMP:  38; 6HR MAX TEMP:  42;

FOND DU LAC    SUNNY     39  33  79 N8        30.01R WCI  33
6HR MIN TEMP:  34; 6HR MAX TEMP:  42;

SHEBOYGAN      SUNNY     38  32  79 N8        29.99R WCI  32
6HR MIN TEMP:  37; 6HR MAX TEMP:  39;

WEST BEND      CLOUDY    37  32  81 NW7       29.98R WCI  32
JUNEAU         SUNNY     36  32  87 NW7       30.01R WCI  30
$$

LSZ147-162-051300-
LAKE SUPERIOR

STATION/POSITION TIME  TEMP    WIND        PRES    WAVE
                       AIR SEA DIR/SP/G            HT/PER
                 (UTC) (F)     (DEG/KT/KT) (MB)    (FT/S)
W MID LAKE BUOY  1050   37 36  170/  6/  8 1016.7F   1
DEVILS ISLAND    1100   38     190/  6/  7 1017.0S
PORT WING        1140   35     170/  4/  5 1016.9R
SAXON HARBOR     1100   33     180/  2/  5 1016.6R
$$

LMZ867-665-643>646-051300-
LAKE MICHIGAN

STATION/POSITION TIME  TEMP    WIND        PRES    WAVE
                       AIR SEA DIR/SP/G            HT/PER
                 (UTC) (F)     (DEG/KT/KT) (MB)    (FT/S)
CHAMBERS ISLAND  1100   38     340/ 10/ 11 1016.3R
N MID LAKE BUOY  1050   38 38  340/ 12/ 14 1014.9R   2/ 4
NORTHPORT PIER   1124   39     350/ 12/ 15 1015.9R
ALGOMA LAKESHORE 1115          340/ 11/ 15   N/A
KEWAUNEE LAKESHO 1100   37     330/  8/ 14 1014.3R
SHEBOYGAN LAKESH 1100   40     340/ 13/ 16 1015.6R
PORT WASHINGTON  1100   42     360/  6/ 10 1015.6R
S MID LAKE BUOY  1050   40 40   20/ 17/ 21 1012.6R   6/ 7
KENOSHA   LAKESH 1100   42     360/ 18/ 23 1013.9R
$$

TC  - TEMPERATURE IN CELSIUS
VSB - VISIBILITY IN STATUTE MILES
WCI - WIND CHILL INDEX
HX  - HEAT INDEX





USA.gov is the U.S. government's official web portal to all federal, state and local government web resources and services.